Regional Weather Roundup
Issued by NWS

Home | Current Version | Previous Version | Graphics & Text | Print | Product List | Glossary On
Versions: 1 2 3 4 5 6 7 8 9 10 11 12 13 14 15 16 17 18 19 20 21 22 23 24 25 26 27 28 29 30 31 32 33 34 35 36 37 38 39 40 41 42 43 44 45 46 47 48 49 50
000
ASUS43 KIND 250609
RWRIN

WEATHER ROUNDUP FOR INDIANA
NATIONAL WEATHER SERVICE INDIANAPOLIS IN
200 AM EDT MON JUL 25 2016

NOTE: "FAIR" INDICATES FEW OR NO CLOUDS BELOW 12,000 FEET WITH NO
SIGNIFICANT WEATHER AND/OR OBSTRUCTIONS TO VISIBILITY.

* - STATION DOES NOT REPORT WEATHER SUCH AS PRECIPITATION OR FOG.

+ - STATION NOT QUALITY CONTROLLED BY THE NATIONAL WEATHER SERVICE.
    USE DATA WITH CAUTION...ESPECIALLY DEWPOINT AND RELATIVE
    HUMIDITY OBSERVATIONS.

INZ001>003-010>013-019-020-250700-
NORTHWEST INDIANA

CITY           SKY/WX    TMP DP  RH WIND       PRES   REMARKS
GARY /AIRPORT/ CLOUDY    75  75 100 SW3       29.97R
KNOX *+        CLOUDY    68  64  88 SE3       29.96F
LA PORTE +     CLOUDY    72  72 100 SW7       29.97S
                                      6HR PCP:  0.09;

MICHIGAN CITY+ CLOUDY    72  70  94 S9        29.96S
MONTICELLO +   LGT RAIN  70  65  84 W3        30.00S
6HR MIN TEMP:  69; 6HR MAX TEMP:  88; 6HR PCP:  0.09;

RENSSELAER +   RAIN      70  68  94 S8        30.01R
VALPARAISO     LGT RAIN  71  68  90 S8        29.97F
6HR MIN TEMP:  68; 6HR MAX TEMP:  87; 6HR PCP:  0.53;


$$

LMZ046-743>745-250700-
SOUTHERN LAKE MICHIGAN

STATION/POSITION TIME  TEMP    WIND        PRES    WAVE
                       AIR SEA DIR/SP/G            HT
                 (UTC) (F)     (DEG/KT/KT) (MB)    (FT)
BURNS HARBOR     0600   74     200/ 16/ 22 1014.6R
MICHIGAN CITY    0500   75     160/ 13/ 19   N/A
5NW MICH CITY    0600   75 74  220/ 12/ 17   N/A     2

$$

INZ004-005-014>016-021>024-250700-
NORTH CENTRAL INDIANA

CITY           SKY/WX    TMP DP  RH WIND       PRES   REMARKS
GOSHEN         RAIN      71  66  84 SW9       29.97R
6HR MIN TEMP:  71; 6HR MAX TEMP:  88; 6HR PCP: TRACE;

LOGANSPORT +   CLOUDY    68  68 100 W8        29.99S
PERU/GRISSOM   CLOUDY    71  69  94 W10       29.96F
6HR MIN TEMP:  70; 6HR MAX TEMP:  87; 6HR PCP:  0.02;

ROCHESTER +    LGT RAIN  70  70 100 NW3       29.95F
SOUTH BEND     RAIN      70  68  93 SW16      29.96F
6HR MIN TEMP:  70; 6HR MAX TEMP:  86; 6HR PCP:  0.14;

WARSAW +       RAIN      70  68  94 W7        29.97F

$$

INZ006>009-017-018-025>027-250700-
NORTHEAST INDIANA

CITY           SKY/WX    TMP DP  RH WIND       PRES   REMARKS
ANGOLA *+      MOCLDY    79  73  83 W12       29.95R
AUBURN +       CLOUDY    81  68  65 W9        29.96R
FORT WAYNE     CLOUDY    76  66  71 W8        29.96S
6HR MIN TEMP:  76; 6HR MAX TEMP:  89;

HUNTINGTON +   CLOUDY    73  67  82 W3        29.96F

$$

INZ028-029-035-036-043>045-051>053-250700-
WEST CENTRAL INDIANA

CITY           SKY/WX    TMP DP  RH WIND       PRES   REMARKS
CRAWFORDSVL +  MOCLDY    71  71 100 NW5       30.03F
6HR MIN TEMP:  71; 6HR MAX TEMP:  84;

GREENCASTLE +  MOCLDY    73  70  88 NW5       30.05R
LAFAYETTE      LGT RAIN  71  70  96 W6        30.01S
6HR MIN TEMP:  71; 6HR MAX TEMP:  87; 6HR PCP:  0.11;

TERRE HAUTE    PTCLDY    74  66  76 N9G18     30.04F
6HR MIN TEMP:  74; 6HR MAX TEMP:  88;


$$

INZ030>032-037>040-046>048-054>057-064-065-250700-
CENTRAL INDIANA

CITY           SKY/WX    TMP DP  RH WIND       PRES   REMARKS
FRANKFORT +    CLOUDY    74  74 100 W6        30.04R
INDIANAPOLIS   NOT AVBL
-EAGLE CREEK   CLOUDY    77  67  71 NW9       30.01R
6HR MIN TEMP:  77; 6HR MAX TEMP:  89;

KOKOMO *+      CLOUDY    72  64  78 W9        29.98F
6HR MIN TEMP:  72; 6HR MAX TEMP:  90;

MARION +       MOCLDY    71  66  83 CALM      29.98F
MT COMFORT *+  MOCLDY    79  73  83 N9        30.01S
SHELBYVILLE    PTCLDY    80  75  84 W5        29.99S
6HR MIN TEMP:  79; 6HR MAX TEMP:  87;

ZIONSVILLE +   CLOUDY    71  67  87 W5        30.02F
6HR MIN TEMP:  71; 6HR MAX TEMP:  85;


$$

INZ033-034-041-042-049-050-058-059-250700-
EAST CENTRAL INDIANA

CITY           SKY/WX    TMP DP  RH WIND       PRES   REMARKS
MUNCIE         CLOUDY    80  74  81 W7        29.99S
6HR MIN TEMP:  80; 6HR MAX TEMP:  90;


$$

INZ060-061-067>069-081>083-085>088-250700-
SOUTHWEST INDIANA

CITY           SKY/WX    TMP DP  RH WIND       PRES   REMARKS
EVANSVILLE     CLEAR     80  76  87 CALM      30.00R
6HR MIN TEMP:  80; 6HR MAX TEMP:  89;

HUNTINGBURG *+ CLEAR     77  73  88 CALM      30.00R
6HR MIN TEMP:  77; 6HR MAX TEMP:  90;

WASHINGTON +   CLEAR     77  77 100 MISG      30.00R
6HR MIN TEMP:  77; 6HR MAX TEMP:  87;


$$

INZ062-063-066-070>080-084-089>092-250700-
SOUTH CENTRAL AND SOUTHEAST INDIANA

CITY           SKY/WX    TMP DP  RH WIND       PRES   REMARKS
BLOOMINGTON    CLEAR     77  74  90 NW3       30.03R
6HR MIN TEMP:  76; 6HR MAX TEMP:  86;

MADISON *+     CLEAR     77  73  88 CALM      30.04R

$$





USA.gov is the U.S. government's official web portal to all federal, state and local government web resources and services.